ZHUHAI-1 01 (CAS-4A)

Last updated on Thu Oct 09 2025 00:02:31 GMT+0000 (Coordinated Universal Time)

1 42761U 17034D 25281.34159269 .04203186 90411-5 12507-2 0 9993 2 42761 42.9927 303.5081 0008135 81.2710 278.9099 16.26032227461692

Satellite not in orbit